Fort Smith, AR

10:57 AM CDT on July 28, 2017 (GMT -0500)
Fort Smith Regional

Weather History for KFSM - October, 2013

Change the Weather History Date:

Saturday, October 5, 2013

  Actual Average Record
Temperature  
Mean Temperature 64 °F 66 °F  
Max Temperature 78 °F 78 °F 95 °F (1884)
Min Temperature 50 °F 54 °F 34 °F (1979)
Degree Days  
Heating Degree Days 1 2  
Month to date heating degree days 1 10  
Since 1 July heating degree days 1 27  
Cooling Degree Days 0 4  
Month to date cooling degree days 55 21  
Year to date cooling degree days 2277 1999  
Growing Degree Days 14 (Base 50)    
Moisture  
Dew Point 59 °F    
Average Humidity 88    
Maximum Humidity 97    
Minimum Humidity 79    
Precipitation  
Precipitation 1.03 in 0.13 in 2.70 in (1998)
Month to date precipitation 1.03 0.66  
Year to date precipitation 37.40 34.07  
Sea Level Pressure  
Sea Level Pressure 29.98 in    
Wind  
Wind Speed 8 mph (West)    
Max Wind Speed 22 mph    
Max Gust Speed 28 mph    
Visibility 8 miles    
Events Fog , Rain , Thunderstorm    
T = Trace of Precipitation, MM = Missing Value Source: NWS Daily Summary

Daily Weather History Graph

Daily Weather History Graph

Search for Another Location

Airport or City:

Trip Planner

Search our weather history database for the weather conditions in past years. The results will help you decide how hot, cold, wet, or windy it might be!

Date:

Astronomy

Oct. 05, 2013 Rise Set
Actual Time 7:15 AM CDT 6:55 PM CDT
Civil Twilight 6:50 AM CDT 7:20 PM CDT
Nautical Twilight 6:20 AM CDT 7:50 PM CDT
Astronomical Twilight 5:51 AM CDT 8:19 PM CDT
Moon 7:53 AM CDT (10/5) 7:18 PM CDT (10/5)
Length of Visible Light 12h 30m
Length of Day
11h 39m
New Moon, 1% of the Moon is Illuminated
Oct 5
New Moon
Oct 11
First Quarter
Oct 18
Full
Oct 26
Last Quarter
Nov 3
New

Hourly Weather History & Observations

Time (CDT) Temp. Dew Point Humidity Pressure Visibility Wind Dir Wind Speed Gust Speed Precip Events Conditions
12:53 AM 75.9 °F 71.1 °F 85% 29.89 in 10.0 mi Calm Calm - N/A   Clear
1:53 AM 75.0 °F 71.1 °F 87% 29.89 in 10.0 mi ESE 3.5 mph - N/A   Clear
2:53 AM 75.0 °F 71.1 °F 87% 29.89 in 10.0 mi ENE 4.6 mph - N/A   Clear
3:53 AM 75.0 °F 71.1 °F 87% 29.89 in 10.0 mi NNE 3.5 mph - N/A   Mostly Cloudy
4:53 AM 75.0 °F 71.1 °F 87% 29.87 in 10.0 mi SE 5.8 mph - N/A   Clear
5:53 AM 75.0 °F 71.1 °F 87% 29.86 in 10.0 mi Calm Calm - N/A   Partly Cloudy
6:53 AM 77.0 °F 71.1 °F 82% 29.87 in 10.0 mi North 5.8 mph - N/A   Overcast
7:50 AM 73.4 °F 68.0 °F 83% 29.91 in 10.0 mi NW 10.4 mph - N/A   Overcast
7:53 AM 73.9 °F 66.9 °F 79% 29.91 in 10.0 mi WNW 10.4 mph - N/A   Overcast
8:12 AM 73.4 °F 68.0 °F 83% 29.93 in 10.0 mi NW 10.4 mph - 0.01 in   Overcast
8:33 AM 71.6 °F 66.2 °F 83% 29.95 in 10.0 mi WNW 10.4 mph - 0.01 in Rain Light Rain
8:44 AM 69.8 °F 66.2 °F 88% 29.95 in 10.0 mi WNW 8.1 mph - 0.01 in Rain Light Rain
8:53 AM 70.0 °F 66.0 °F 87% 29.94 in 8.0 mi WNW 9.2 mph - 0.01 in Rain Light Rain
9:05 AM 69.8 °F 66.2 °F 88% 29.96 in 1.8 mi Calm Calm - 0.04 in Rain Rain
9:13 AM 68.0 °F 68.0 °F 100% 29.96 in 0.2 mi West 3.5 mph - 0.23 in Fog , Rain Heavy Rain
9:18 AM 69.8 °F 68.0 °F 94% 29.95 in 0.5 mi West 5.8 mph - 0.33 in Fog , Rain Heavy Rain
9:31 AM 66.2 °F 66.2 °F 100% 29.97 in 0.8 mi WSW 17.3 mph 23.0 mph 0.61 in Rain Heavy Rain
9:39 AM 64.4 °F 62.6 °F 94% 29.97 in 2.5 mi WSW 19.6 mph - 0.69 in Rain Light Rain
9:41 AM 62.6 °F 62.6 °F 100% 29.97 in 6.0 mi WSW 15.0 mph - 0.69 in Rain Light Rain
9:53 AM 63.0 °F 61.0 °F 93% 29.97 in 10.0 mi West 18.4 mph 23.0 mph 0.69 in Rain Light Rain
10:53 AM 60.1 °F 59.0 °F 96% 29.99 in 9.0 mi West 13.8 mph - 0.03 in Rain Light Rain
11:53 AM 57.9 °F 55.0 °F 90% 30.02 in 10.0 mi West 15.0 mph - 0.01 in   Overcast
12:53 PM 57.9 °F 55.0 °F 90% 30.02 in 10.0 mi WNW 10.4 mph - N/A   Overcast
1:53 PM 57.0 °F 52.0 °F 83% 30.02 in 10.0 mi NW 13.8 mph - N/A   Overcast
2:16 PM 55.4 °F 51.8 °F 88% 30.03 in 2.0 mi West 17.3 mph 24.2 mph N/A   Overcast
2:31 PM 55.4 °F 51.8 °F 88% 30.03 in 4.0 mi West 15.0 mph - N/A   Overcast
2:40 PM 55.4 °F 51.8 °F 88% 30.02 in 9.0 mi West 11.5 mph - N/A   Overcast
2:53 PM 55.0 °F 51.1 °F 86% 30.03 in 10.0 mi West 13.8 mph - N/A   Overcast
3:18 PM 53.6 °F 51.8 °F 94% 30.04 in 3.0 mi West 10.4 mph 27.6 mph 0.05 in Rain , Thunderstorm Thunderstorms and Rain
3:24 PM 53.6 °F 51.8 °F 94% 30.04 in 1.8 mi West 6.9 mph - 0.08 in Rain , Thunderstorm Heavy Thunderstorms and Rain
3:36 PM 53.6 °F 51.8 °F 94% 30.01 in 1.2 mi NW 9.2 mph - 0.18 in Rain , Thunderstorm Heavy Thunderstorms and Rain
3:40 PM 53.6 °F 51.8 °F 94% 30.02 in 2.0 mi West 6.9 mph - 0.19 in Rain , Thunderstorm Light Thunderstorms and Rain
3:53 PM 53.1 °F 51.1 °F 93% 30.02 in 10.0 mi West 12.7 mph - 0.19 in Rain Light Rain
4:00 PM 53.6 °F 51.8 °F 94% 30.02 in 10.0 mi West 12.7 mph - 0.00 in Rain Light Rain
4:53 PM 53.1 °F 50.0 °F 89% 30.01 in 10.0 mi West 6.9 mph - 0.06 in   Overcast
5:03 PM 53.6 °F 51.8 °F 94% 30.02 in 10.0 mi WSW 4.6 mph - N/A   Overcast
5:26 PM 53.6 °F 51.8 °F 94% 30.01 in 10.0 mi West 6.9 mph - N/A   Overcast
5:48 PM 53.6 °F 48.2 °F 82% 30.04 in 10.0 mi West 12.7 mph - N/A   Overcast
5:53 PM 54.0 °F 48.9 °F 83% 30.04 in 10.0 mi West 16.1 mph - N/A   Overcast
6:53 PM 53.1 °F 50.0 °F 89% 30.03 in 8.0 mi West 5.8 mph - 0.03 in Rain Light Rain
7:53 PM 53.1 °F 50.0 °F 89% 30.05 in 10.0 mi WSW 5.8 mph - 0.01 in   Clear
8:53 PM 53.1 °F 50.0 °F 89% 30.04 in 10.0 mi WSW 4.6 mph - N/A   Clear
9:53 PM 53.1 °F 50.0 °F 89% 30.06 in 10.0 mi West 4.6 mph - N/A   Partly Cloudy
10:53 PM 52.0 °F 50.0 °F 93% 30.07 in 10.0 mi SSW 4.6 mph - N/A   Clear
11:53 PM 51.1 °F 48.9 °F 92% 30.05 in 10.0 mi Calm Calm - N/A   Clear